Regional Weather Roundup
Issued by NWS

Home | Current Version | Previous Version | Text Only | Print | Product List | Glossary Off
Versions: 1 2 3 4 5 6 7 8 9 10 11 12 13 14 15 16 17 18 19 20 21 22 23 24 25 26 27 28 29 30 31 32 33 34 35 36 37 38 39 40 41 42 43 44 45 46 47 48 49 50

000
ASUS43 KDMX 290907
RWRIA

WEATHER ROUNDUP FOR IOWA
NATIONAL WEATHER SERVICE DES MOINES IA
300 AM CST THU JAN 29 2015

NOTE: "FAIR" INDICATES FEW OR NO CLOUDS BELOW 12,000 FEET WITH NO
SIGNIFICANT WEATHER AND/OR OBSTRUCTIONS TO VISIBILITY.

* - THESE STATIONS ARE NOT NWS STATIONS...THUS NOT UNDER NWS
QUALITY CONTROL.  THEY ALSO DO NOT REPORT WEATHER SUCH
AS PRECIPITATION OR FOG.

IAZ001>003-012>014-020>022-031>034-043>046-291000-
   NORTHWEST IOWA

CITY           SKY/WX    TMP DP  RH WIND       PRES   REMARKS
CARROLL *      CLOUDY    34  32  93 NW24G30   30.00R WCI  21
CHEROKEE *     CLOUDY    34  32  93 NW15G24   30.05R WCI  24
DENISON *      MIX PCPN  34  34 100 NW20G31   30.02R WCI  22
LE MARS *      MIX PCPN  34  32  93 NW23G33   30.11R WCI  22
ORANGE CITY *  CLOUDY    36  30  80 NW20      30.08R WCI  25
SHELDON *      MIX PCPN  32  32 100 NW24G39   30.05R WCI  19
SIOUX CITY     CLOUDY    35  30  82 NW23G35   30.11R WCI  23
SPENCER        CLOUDY    34  29  82 NW22G32   30.02R WCI  22
STORM LAKE *   CLOUDY    34  32  93 NW20G32   30.02R WCI  22
$$

IAZ055>058-069>071-079>083-090>094-291000-
   SOUTHWEST IOWA

CITY           SKY/WX    TMP DP  RH WIND       PRES   REMARKS
ATLANTIC *     CLOUDY    36  32  87 N25G33    30.03R WCI  23
AUDUBON *      CLOUDY    36  30  80 NW21G29   30.02R WCI  24
CLARINDA *     CLOUDY    37  32  81 NW23G33   30.07R WCI  26
COUNCIL BLFS * CLOUDY    36  30  80 N18G36    30.06R WCI  25
CRESTON *      CLOUDY    36  36 100 NW25G31   29.97R WCI  23
HARLAN  *      CLOUDY    36  36 100 NW22G37   30.08R WCI  24
LAMONI         CLOUDY    38  31  76 N28G39    29.95R WCI  26
RED OAK *      CLOUDY    37  32  81 N20G30    30.06R WCI  27
SHENANDOAH *   CLOUDY    37  32  81 NW24G40   30.10R WCI  26
$$

IAZ047>049-059>061-072>074-084-291000-
   CENTRAL IOWA

CITY           SKY/WX    TMP DP  RH WIND       PRES   REMARKS
AMES           CLOUDY    35  30  82 N20G32    29.92R WCI  24
ANKENY *       CLOUDY    36  32  87 NW21G30   29.93R WCI  24
CHARITON *     CLOUDY    36  32  87 NW25G33   29.92R WCI  23
DES MOINES     CLOUDY    37  30  75 N22G30    29.94R WCI  26
GRINNELL*      CLOUDY    34  32  93 NW22G28   29.86R WCI  22
KNOXVILLE *    CLOUDY    36  30  80 NW25G39   29.89R WCI  23
MARSHALLTOWN   CLOUDY    34  31  88 NW22      29.87R WCI  22
PELLA *        CLOUDY    36  32  87 NW23G32   29.90R WCI  24
PERRY *          N/A     36  34  93 NW22G31   29.97R WCI  24
$$

IAZ004>006-015-016-023>025-035-036-291000-
   NORTH CENTRAL IOWA

CITY           SKY/WX    TMP DP  RH WIND       PRES   REMARKS
ALGONA *       CLOUDY    34  34 100 NW20G28   29.96R FOG     WCI  22
CLARION *      MIX PCPN  32  32 100 NW21G28   29.93R WCI  20
ESTHERVILLE    CLOUDY    32  30  92 NW26G36   29.98R WCI  18
FORT DODGE *   CLOUDY    34  28  80 NW13G24   29.96R WCI  25
MASON CITY     CLOUDY    32  30  92 NW25      29.91R FOG     WCI  19
FOREST CITY *  CLOUDY    32  32 100 NW22      29.91R FOG     WCI  19
IOWA FALLS *   CLOUDY    34  30  86 NW23      29.90R WCI  22
$$

IAZ007>011-017>019-026>030-037>042-050>054-066-291000-
   NORTHEAST IOWA

CITY           SKY/WX    TMP DP  RH WIND       PRES   REMARKS
CEDAR RAPIDS   CLOUDY    32  32 100 NW15      29.78R FOG     WCI  22
CHARLES CITY * CLOUDY    32  32 100 N21G30    29.86R FOG     WCI  20
CLINTON *      PTCLDY    28  25  86 N10       29.73R WCI  19
DECORAH *      CLOUDY    30  30 100 NW10      29.81R FOG     WCI  21
DUBUQUE        CLOUDY    31  28  89 N10       29.74R FOG     WCI  22
MONTICELLO *   CLOUDY    32  32 100 N14       29.76R FOG     WCI  22
OELWEIN *      CLOUDY    32  32 100 N15       29.82R FOG     WCI  22
WATERLOO       CLOUDY    33  32  96 NW20G25   29.84R WCI  21
$$

IAZ064-065-067-068-078-291000-
   EAST CENTRAL IOWA

CITY           SKY/WX    TMP DP  RH WIND       PRES   REMARKS
DAVENPORT      PTCLDY    31  27  85 N10       29.70R WCI  22
IOWA CITY      CLOUDY    34  31  88 NW14      29.79R WCI  25
MT. PLEASANT * MOCLDY    36  32  87 W17G28    29.78R WCI  25
MUSCATINE *    MOCLDY    36  32  87 NW13      29.75R WCI  27
QUAD CITIES    PTCLDY    35  30  82 NW6       29.69R WCI  30
$$

IAZ062-063-075>077-085>089-095>099-291000-
   SOUTHEAST IOWA

CITY           SKY/WX    TMP DP  RH WIND       PRES   REMARKS
BURLINGTON     MOCLDY    40  34  79 NW21G31   29.74R WCI  30
FAIRFIELD *    CLOUDY    36  32  87 NW21G29   29.82R FOG     WCI  24
FORT MADISON * CLEAR     37  34  87 W18G28    29.78R WCI  27
KEOKUK *       CLEAR     41  36  81 NW25G35   29.77R
OSKALOOSA *    CLOUDY    34  32  93 NW21      29.86R FOG     WCI  22
CENTERVILLE *  CLOUDY    36  32  87 NW22G31   29.91R WCI  24
OTTUMWA        CLOUDY    35  33  92 NW22G33   29.85R WCI  23
WASHINGTON *   CLOUDY    36  36 100 NW22G30   29.79R WCI  24
$$

ABBREVIATIONS USED IN REMARKS
   TC - TEMPERATURES IN CELSIUS
  WCI - WIND CHILL INDEX
   HX - HEAT INDEX
  VSB - VISIBILITY
$$



USA.gov is the U.S. government's official web portal to all federal, state and local government web resources and services.